Regional Weather Roundup
Issued by NWS

Home | Current Version | Previous Version | Text Only | Print | Product List | Glossary Off
Versions: 1 2 3 4 5 6 7 8 9 10 11 12 13 14 15 16 17 18 19 20 21 22 23 24 25 26 27 28 29 30 31 32 33 34 35 36 37 38 39 40 41 42 43 44 45 46 47 48 49 50

000
ASUS43 KMKX 300920
RWRWI

WISCONSIN REGIONAL WEATHER ROUNDUP
NATIONAL WEATHER SERVICE MILWAUKEE/SULLIVAN WI
300 AM CST FRI JAN 30 2015

NOTE: "FAIR" INDICATES FEW OR NO CLOUDS BELOW 12,000 FEET WITH NO
SIGNIFICANT WEATHER AND/OR OBSTRUCTIONS TO VISIBILITY.

WIZ001-002-006>008-014>016-023>028-301000-
NORTHWEST WISCONSIN

CITY           SKY/WX    TMP DP  RH WIND       PRES   REMARKS
SUPERIOR ARPT  PTCLDY     2  -2  81 W5        30.56S WCI  -7
ASHLAND        CLOUDY    13   5  70 N3        30.50F
HAYWARD        CLOUDY     5  -1  76 VRB3      30.49S
SIREN          PTCLDY     0  -4  85 NW5       30.54F WCI -10
CUMBERLAND     PTCLDY     3  -2  78 NW7       30.49F WCI  -9
RICE LAKE      PTCLDY     5   0  78 CALM      30.53S
CHETEK         PTCLDY     4  -1  80 CALM      30.52S
LADYSMITH      FLURRIES  10   3  75 NW7       30.49S WCI  -2
EAU CLAIRE     PTCLDY     8   0  69 NW7       30.52S WCI  -3
MENOMONIE      PTCLDY    10   2  72 NW8       30.54S WCI  -3
NEW RICHMOND   PTCLDY     6   2  81 N5        30.53F WCI  -2
OSCEOLA        PTCLDY     9   4  78 CALM      30.57F
$$

WIZ003>005-009-010-017-018-301000-
NORTH CENTRAL WISCONSIN

CITY           SKY/WX    TMP DP  RH WIND       PRES   REMARKS
MANITOWISH WTR CLOUDY    10   4  75 N6        30.39S WCI   1
ARBOR VITAE    CLOUDY    13   6  74 N10       30.39R WCI   0
WOODRUFF       CLOUDY    13   6  74 N10       30.39R WCI   0
RHINELANDER    CLOUDY    11   2  67 NW9G20    30.39R WCI  -2
EAGLE RIVER    CLOUDY    10   2  68 NW10G18   30.38R WCI  -3
LAND O LAKES   CLOUDY    10   4  75 N8G16     30.39R WCI  -1
PHILLIPS       CLOUDY    11   4  71 NW7       30.42R WCI   0
TOMAHAWK       CLOUDY    13   3  66 NW9       30.41R WCI   0
MEDFORD        CLOUDY    12   4  71 NW10      30.42R WCI  -1
MERRILL        CLOUDY    15   5  66 N12       30.42R WCI   1
$$

WIZ029-030-035-036-043>047-301000-
CENTRAL WISCONSIN

CITY           SKY/WX    TMP DP  RH WIND       PRES   REMARKS
WAUSAU         CLOUDY    15   4  61 N9        30.41R WCI   3
MOSINEE        CLOUDY    14   7  73 NW12      30.43R WCI   0
MARSHFIELD     CLOUDY    13   4  67 NW9       30.43R WCI   1
STEVENS POINT  CLOUDY    15   5  64 N10       30.43R WCI   2
WAUPACA        CLOUDY    20   8  58 NW8       30.43S WCI  11
WAUTOMA        CLEAR     17   6  62 NW8       30.45R WCI   7
WISC RAPIDS    CLOUDY    17   6  62 NW7       30.45R WCI   8
CAMP DOUGLAS   CLEAR     13   8  78 NW9       30.47R WCI   1
$$

WIZ011>013-019>022-031-037>040-048>050-301000-
NORTHEAST WISCONSIN

CITY           SKY/WX    TMP DP  RH WIND       PRES   REMARKS
ANTIGO         CLOUDY    13   5  70 NW12      30.38R WCI  -1
SHAWANO        CLOUDY    20   6  55 N8        30.43R WCI  10
OCONTO         CLOUDY    17   6  62 MISG      30.43R
STURGEON BAY   CLOUDY    16   1  53 N16       30.43R WCI   0
GREEN BAY      MOCLDY    17   5  59 NW7       30.42R WCI   8
MANITOWOC      CLOUDY    18   7  62 N14       30.41R WCI   4
APPLETON       CLOUDY    19   9  63 NW14      30.41S WCI   6
CLINTONVILLE   CLOUDY    19   7  58 NW6       30.43R WCI  11
OSHKOSH        MOCLDY    19   6  57 NW10      30.42R WCI   7
$$

WIZ032>034-041-042-053>061-301000-
SOUTHWEST WISCONSIN

CITY           SKY/WX    TMP DP  RH WIND       PRES   REMARKS
LA CROSSE      NOT AVBL
SPARTA         PTCLDY    13   6  72 NW7       30.51R WCI   3
VIROQUA        CLEAR     13   7  76 NW10      30.45S WCI   0
BOSCOBEL       CLEAR     19   8  62 N8        30.50R WCI   9
PRAIRIE DU CHI MOCLDY    19   9  65 NW7       30.51R WCI  10
PLATTEVILLE    CLEAR     19  10  67 NW10      30.45R WCI   8
$$

WIZ056-057-062-063-064-067-068-301000-
SOUTH CENTRAL WISCONSIN

CITY           SKY/WX    TMP DP  RH WIND       PRES   REMARKS
REEDSBURG      CLEAR     16   7  69 NW5       30.45R WCI   8
BARABOO/DELLS  CLEAR     16   6  65 NW5       30.44R WCI   9
LONE ROCK      PTCLDY    20   8  60 N8        30.47R WCI  10
MINERAL POINT  PTCLDY    21  12  68 NW5       30.43R WCI  15
MADISON        CLEAR     18   8  65 NW8       30.43R WCI   8
MIDDLETON      CLEAR     19   9  63 NW10      30.43S WCI   7
WATERTOWN      CLOUDY    21   8  57 N13G21    30.41R WCI   8
MONROE         CLEAR     21  12  68 N8        30.42R WCI  12
JANESVILLE     CLEAR     23  12  63 N13       30.42R WCI  11
$$

WIZ051-052-058>065-066-070>072-301000-
SOUTHEAST WISCONSIN

CITY           SKY/WX    TMP DP  RH WIND       PRES   REMARKS
MILWAUKEE      PTCLDY    23  10  57 N16       30.40R WCI  10
WAUKESHA       MOCLDY    19   9  63 N9        30.40S WCI   9
MILWAUKEE/TIMM CLEAR     21  10  63 N14       30.41R WCI   8
RACINE         CLOUDY    24  11  57 NW10      30.41R WCI  14
BURLINGTON     CLOUDY    22   8  55 N6        30.40R WCI  14
KENOSHA        CLEAR     22  10  60 NW9       30.39R WCI  12
FOND DU LAC    PTCLDY    17   6  62 NW9       30.42R WCI   6
SHEBOYGAN      CLOUDY    20   9  62 N10       30.40R WCI   9
WEST BEND      CLEAR     19  10  68 NW8       30.40R WCI   9
JUNEAU         PTCLDY    17   6  62 NW8       30.42S WCI   6
$$

LSZ147-162-301000-
LAKE SUPERIOR

STATION/POSITION TIME  TEMP    WIND        PRES    WAVE
                       AIR SEA DIR/SP/G            HT/PER
                 (UTC) (F)     (DEG/KT/KT) (MB)    (FT/S)
DEVILS ISLAND    0900   12     310/  9/ 11 1034.9S
PORT WING        0840   14     280/ 11/ 14 1033.5R
SAXON HARBOR     0800   16      20/  6/ 14 1032.5R
$$

LMZ867-665-643>646-301000-
LAKE MICHIGAN

STATION/POSITION TIME  TEMP    WIND        PRES    WAVE
                       AIR SEA DIR/SP/G            HT/PER
                 (UTC) (F)     (DEG/KT/KT) (MB)    (FT/S)
NORTHPORT PIER   0909   17     340/ 22/ 27 1029.5R
SISTER BAY       0843   16     360/ 17/ 20   N/A
KEWAUNEE LAKESHO 0800   17     340/  9/ 15 1028.4R
SHEBOYGAN LAKESH 0900   20     340/ 16/ 18 1031.1R
PORT WASHINGTON  0840   23     330/  6/ 10 1030.1R
MILWAUKEE LAKESH 0900   24     340/ 10/ 14   N/A
KENOSHA   LAKESH 0900   24     320/ 12/ 16 1029.1R
$$

TC  - TEMPERATURE IN CELSIUS
VSB - VISIBILITY IN STATUTE MILES
WCI - WIND CHILL INDEX
HX  - HEAT INDEX




USA.gov is the U.S. government's official web portal to all federal, state and local government web resources and services.